Regional Weather Roundup
Issued by NWS

Home | Current Version | Previous Version | Text Only | Print | Product List | Glossary Off
Versions: 1 2 3 4 5 6 7 8 9 10 11 12 13 14 15 16 17 18 19 20 21 22 23 24 25 26 27 28 29 30 31 32 33 34 35 36 37 38 39 40 41 42 43 44 45 46 47 48 49 50

000
ASUS43 KOAX 201610
RWRNE

WEATHER ROUNDUP FOR NEBRASKA
NATIONAL WEATHER SERVICE OMAHA NE
1000 AM CST FRI JAN 20 2017

NOTES: SATELLITE DATA IS BEING USED TO AUGMENT CLOUD COVER ABOVE
       12000 FEET.
       "FAIR" INDICATES FEW OR NO CLOUDS BELOW 12,000 FEET WITH NO
       SIGNIFICANT WEATHER AND/OR OBSTRUCTIONS TO VISIBILITY.

  * THESE STATIONS DO NOT REPORT WEATHER SUCH AS RAIN...SNOW OR FOG.

NEZ001>004-019>022-054>056-201700-
NEBRASKA PANHANDLE

CITY           SKY/WX    TMP DP  RH WIND       PRES   REMARKS
SCOTTSBLUFF    CLOUDY    30  25  81 W5        29.44S WCI  25
ALLIANCE       MOSUNNY   32  28  85 W8        29.41R WCI  25
CHADRON        MOSUNNY   28  23  81 SW5       29.41F WCI  23
KIMBALL        CLOUDY    35  34  96 W15       29.46S WCI  25
SIDNEY         CLOUDY    35  28  75 NW8       29.45S WCI  29
$$

NEZ057>060-069>072-079>082-201700-
SOUTHWEST NEBRASKA

CITY           SKY/WX    TMP DP  RH WIND       PRES   REMARKS
NORTH PLATTE   CLOUDY    35  33  92 NW3       29.45S FOG
IMPERIAL       CLOUDY    28  27  96 W6        29.45F FOG     WCI  22
LEXINGTON      CLOUDY    37  36  96 S7        29.47R FOG     WCI  32
MCCOOK         CLOUDY    35  35 100 CALM      29.48R FOG
OGALLALA       CLOUDY    27  26  96 SW5       29.46R WCI  22
$$

NEZ005>010-023>029-035>040-094-201700-
NORTH CENTRAL NEBRASKA

CITY           SKY/WX    TMP DP  RH WIND       PRES   REMARKS
VALENTINE      SUNNY     31  26  82 SW8       29.39S WCI  23
AINSWORTH      SUNNY     31  29  90 SW9       29.40F WCI  23
BROKEN BOW     PTSUNNY   36  34  92 SW3       29.45F
O`NEILL        MOSUNNY   36  36  99 S9        29.44F FOG     WCI  29
ORD            SUNNY     35  32  88 VRB3      29.47R
THEDFORD       CLOUDY    31  31  99 S9        29.43S FOG     WCI  23
$$

NEZ041-046>049-061>064-073>077-083>087-201700-
SOUTH CENTRAL NEBRASKA

CITY           SKY/WX    TMP DP  RH WIND       PRES   REMARKS
GRAND ISLAND   FOG       38  38 100 S6        29.50S VSB 1/2 WCI  33
AURORA         FOG       37  37 100 CALM      29.50F VSB 1/4
HASTINGS       CLOUDY    39  38  96 SE7       29.50S FOG     WCI  34
HEBRON         FOG       39  39 100 CALM      29.52R VSB 1
HOLDREGE       FOG       37  37  97 S5        29.48R VSB 1/4 WCI  34
KEARNEY *      CLOUDY    37  36  93 S5        29.48S VSB<1/4 WCI  34
YORK           CLOUDY    39  39 100 SE3       29.51F FOG
$$

NEZ011>018-030>034-042>045-201700-
NORTHEAST NEBRASKA

CITY           SKY/WX    TMP DP  RH WIND       PRES   REMARKS
NORFOLK        FOG       39  38  96 S8        29.50S VSB 1/2 WCI  33
ALBION         CLOUDY   N/A N/A N/A S9        29.50R HAZE
BLAIR          CLOUDY    41  40  97 E6        29.54F FOG
FREMONT        CLOUDY    39  39 100 SE3       29.55F FOG
TEKAMAH        CLOUDY    38  37  97 SE7       29.56F FOG     WCI  33
WAYNE          CLOUDY    39  38  99 S10       29.52F WCI  32
$$

NEZ050>053-065>068-078-088>093-201700-
SOUTHEAST NEBRASKA

CITY           SKY/WX    TMP DP  RH WIND       PRES   REMARKS
LINCOLN        CLOUDY    41  41 100 CALM      29.54F FOG
OMAHA EPPLEY   DRIZZLE   42  38  85 SE7       29.56F FOG
BEATRICE       FOG       41  41 100 E3        29.52F VSB 1/2
FALLS CITY     FOG       42  42 100 NE6       29.53F VSB 1/4
NEBRASKA CITY  FOG       40  40 100 E3        29.55F VSB 1/4
PLATTSMOUTH    FOG       39  38  93 E3        29.55F VSB 1/4
$$

NEZ044-045-051>053-067-201700-
OMAHA AREA

CITY           SKY/WX    TMP DP  RH WIND       PRES   REMARKS
OMAHA EPPLEY   DRIZZLE   42  38  85 SE7       29.56F FOG
BLAIR          CLOUDY    41  40  97 E6        29.54F FOG
FREMONT        CLOUDY    39  39 100 SE3       29.55F FOG
MILLARD        CLOUDY    43  42  97 SE5       29.55F FOG
OFFUTT AFB     PTSUNNY   40  40 100 E3        29.56F
PLATTSMOUTH    FOG       39  38  93 E3        29.55F VSB 1/4
WAHOO          FOG       38  37  97 SE3       29.55S VSB<1/4
$$




USA.gov is the U.S. government's official web portal to all federal, state and local government web resources and services.